Location: Oak Glen
(34.0495°N, 116.9470°E)
Time: 12:54:09
(UTC-07:00)

ISS - Pass Details

Date: 13 October 2017
Orbit: 401 x 408 km, 51.6° (Epoch: 21 October)

Event Time Altitude Azimuth Distance (km) Brightness Sun altitude
Rises 04:59:27 0° 309° (NW) 2,320 0.9 -29.4°
Reaches altitude 10° 05:01:33 10° 305° (NW) 1,459 -0.3 -29.8°
Enters shadow 05:01:55 13° 304° (NW) 1,313 -0.5 -29.9°
